SV1BYK-2 Weather Reports


Display with metric or nautical units.
time (UTC)temp
F
wind
direction
speed
MPH
gust
MPH
rain 1hr
in
rain 24hr
in
rain mn
in
humidity
%
barometer
mb
20260502202703 53 308 4.0 11.0 0.00 0.00 0.00 49 1011.4
20260502201804 53 306 4.0 11.0 0.00 0.00 0.00 49 1011.3
20260502201117 53 313 7.0 11.0 0.00 0.00 0.00 48 1011.2
20260502200215 53 304 6.0 13.0 0.00 0.00 0.00 47 1011.5
20260502195403 54 316 4.0 11.0 0.00 0.00 0.00 45 1011.5
20260502194503 54 313 2.0 13.0 0.00 0.00 0.00 45 1011.5
20260502193816 54 319 4.0 8.0 0.00 0.00 0.00 45 1011.3
20260502192913 54 309 2.0 8.0 0.00 0.00 0.00 45 1011.3
20260502191803 54 314 2.0 14.0 0.00 0.00 0.00 44 1011.4
20260502191113 54 316 2.0 11.0 0.00 0.00 0.00 44 1011.3
20260502190004 54 324 3.0 11.0 0.00 0.00 0.00 44 1011.4
20260502185617 54 325 2.0 11.0 0.00 0.00 0.00 43 1011.3
20260502184503 54 319 3.0 14.0 0.00 0.00 0.00 44 1011.4
20260502183603 54 334 2.0 11.0 0.00 0.00 0.00 43 1011.3
20260502181803 54 306 3.0 14.0 0.00 0.00 0.00 42 1011.1
20260502180904 54 315 1.0 11.0 0.00 0.00 0.00 42 1011.1
20260502163603 57 324 2.0 13.0 0.00 0.00 0.00 38 1010.9
20260502162915 57 331 3.0 13.0 0.00 0.00 0.00 38 1010.8
20260502162012 56 327 2.0 14.0 0.00 0.00 0.00 39 1011.0
20260502160904 58 307 4.0 14.0 0.00 0.00 0.00 37 1010.8
20260502160217 58 304 4.0 15.0 0.00 0.00 0.00 37 1011.0
20260502151803 56 352 4.0 20.0 0.00 0.00 0.00 39 1011.3
20260502151115 58 333 4.0 18.0 0.00 0.00 0.00 37 1011.2
20260502130214 57 300 3.0 13.0 0.00 0.00 0.00 38 1011.8
20260502123815 58 286 4.0 13.0 0.00 0.00 0.00 39 1011.4
20260502122913 58 265 2.0 13.0 0.00 0.00 0.00 40 1011.5
20260502121803 59 239 2.0 11.0 0.00 0.00 0.00 39 1011.3
20260502121117 59 251 4.0 14.0 0.00 0.00 0.00 38 1011.4
20260502115616 60 278 4.0 11.0 0.00 0.00 0.00 36 1011.6
20260502114503 59 256 3.0 14.0 0.00 0.00 0.00 42 1011.7
20260502113816 59 246 2.0 11.0 0.00 0.00 0.00 42 1011.9
20260502112703 60 284 2.0 13.0 0.00 0.00 0.00 43 1011.8
20260502111803 60 217 4.0 8.0 0.00 0.00 0.00 44 1011.5
20260502111113 60 251 3.0 9.0 0.00 0.00 0.00 44 1011.7
20260502110215 60 238 4.0 9.0 0.00 0.00 0.00 44 1011.5
20260502105617 59 228 4.0 8.0 0.00 0.00 0.00 45 1011.8
20260502104714 57 241 3.0 8.0 0.00 0.00 0.00 49 1011.8
20260502103603 60 242 3.0 8.0 0.00 0.00 0.00 45 1012.1
20260502102703 60 234 4.0 9.0 0.00 0.00 0.00 45 1012.2
20260502101803 60 281 3.0 15.0 0.00 0.00 0.00 48 1012.0
20260502101114 58 218 4.0 7.0 0.00 0.00 0.00 48 1012.0
20260502090903 59 250 3.0 14.0 0.00 0.00 0.00 49 1012.1
20260502090217 59 268 2.0 14.0 0.00 0.00 0.00 48 1012.2
20260502071115 56 214 3.0 20.0 0.00 0.00 0.00 50 1011.9
20260502070004 57 250 3.0 11.0 0.00 0.00 0.00 49 1012.1
20260502065614 57 245 4.0 9.0 0.00 0.00 0.00 49 1011.8
20260502064717 56 219 4.0 9.0 0.00 0.00 0.00 50 1011.8
20260502063603 57 246 4.0 11.0 0.00 0.00 0.00 51 1011.6
20260502062916 56 251 3.0 11.0 0.00 0.00 0.00 52 1011.4
20260502062014 55 244 3.0 11.0 0.00 0.00 0.00 54 1011.2
20260502060903 56 241 5.0 11.0 0.00 0.00 0.00 52 1011.5
20260502060213 56 257 3.0 9.0 0.00 0.00 0.00 53 1011.3
20260502055404 55 261 3.0 15.0 0.00 0.00 0.00 54 1011.4
20260502054717 55 240 2.0 8.0 0.00 0.00 0.00 56 1011.6
20260502053815 53 245 2.0 8.0 0.00 0.00 0.00 59 1011.7
20260502052703 53 209 3.0 8.0 0.00 0.00 0.00 59 1011.7
20260502051803 53 233 2.0 7.0 0.00 0.00 0.00 60 1012.0
20260502050904 53 222 3.0 9.0 0.00 0.00 0.00 61 1012.0
20260502050214 53 238 3.0 11.0 0.00 0.00 0.00 61 1011.8
20260502045404 53 233 3.0 8.0 0.00 0.00 0.00 63 1011.5
20260502044504 53 241 3.0 8.0 0.00 0.00 0.00 63 1011.8
20260502043603 53 235 4.0 8.0 0.00 0.00 0.00 64 1011.7
20260502042703 53 238 4.0 7.0 0.00 0.00 0.00 65 1011.7
20260502041803 53 239 2.0 6.0 0.00 0.00 0.00 66 1011.6
20260502041117 52 229 3.0 7.0 0.00 0.00 0.00 67 1011.8
20260502040004 52 232 2.0 4.0 0.00 0.00 0.00 69 1011.9
20260502035616 52 234 2.0 7.0 0.00 0.00 0.00 69 1011.8
20260502034714 52 226 2.0 8.0 0.00 0.00 0.00 69 1012.3
20260502033603 52 256 2.0 6.0 0.00 0.00 0.00 73 1012.1
20260502032703 52 222 2.0 7.0 0.00 0.00 0.00 71 1011.7
20260502031803 53 204 2.0 8.0 0.00 0.00 0.00 69 1011.6
20260502030904 53 222 3.0 7.0 0.00 0.00 0.00 66 1011.8
20260502030004 53 239 2.0 6.0 0.00 0.00 0.00 66 1011.7
20260502025617 53 230 2.0 4.0 0.00 0.00 0.00 66 1011.8
20260502024503 53 220 2.0 7.0 0.00 0.00 0.00 64 1011.8
20260502023817 53 225 4.0 6.0 0.00 0.00 0.00 64 1011.6
20260502022703 53 234 2.0 6.0 0.00 0.00 0.00 65 1011.7
20260502022016 53 237 3.0 4.0 0.00 0.00 0.00 65 1011.6
20260502020904 53 251 2.0 13.0 0.00 0.00 0.00 65 1011.8
20260502020216 53 223 2.0 4.0 0.00 0.00 0.00 65 1011.8
20260502015618 53 236 2.0 7.0 0.00 0.00 0.00 66 1011.8
20260502014715 53 207 2.0 6.0 0.00 0.00 0.00 66 1011.7
20260502013817 53 238 3.0 6.0 0.00 0.00 0.00 66 1011.9
20260502012915 53 253 2.0 6.0 0.00 0.00 0.00 66 1011.9
20260502011803 53 188 3.0 4.0 0.00 0.00 0.00 66 1011.8
20260502010904 53 238 2.0 4.0 0.00 0.00 0.00 67 1011.9
20260502010217 53 231 2.0 6.0 0.00 0.00 0.00 66 1011.9
20260502005404 53 224 2.0 8.0 0.00 0.00 0.00 65 1012.0
20260502004503 53 245 2.0 6.0 0.00 0.00 0.00 64 1011.9
20260502003603 53 258 2.0 11.0 0.00 0.00 0.00 64 1011.9
20260502002915 53 220 2.0 4.0 0.00 0.00 0.00 65 1012.0
20260502002012 53 221 2.0 7.0 0.00 0.00 0.00 65 1012.0
20260502001115 53 231 3.0 13.0 0.00 0.01 0.00 65 1012.2
20260502000004 54 210 3.0 7.0 0.00 0.01 0.00 63 1012.1
20260501235614 54 227 2.0 7.0 0.00 0.01 0.00 63 1012.0
20260501234716 54 233 2.0 8.0 0.00 0.01 0.00 64 1012.1
20260501233603 53 220 2.0 8.0 0.00 0.01 0.00 65 1012.2
20260501232703 54 203 2.0 8.0 0.00 0.01 0.00 66 1012.5
20260501231803 53 219 2.0 8.0 0.00 0.01 0.00 66 1012.5
20260501230904 53 285 2.0 8.0 0.00 0.01 0.00 67 1012.6
20260501230218 53 263 2.0 8.0 0.00 0.01 0.00 66 1012.4
20260501225614 53 203 2.0 7.0 0.00 0.01 0.00 66 1012.3
20260501224717 53 214 2.0 6.0 0.00 0.01 0.00 66 1012.8
20260501223603 54 248 2.0 9.0 0.00 0.01 0.00 66 1013.1
20260501222916 53 240 2.0 6.0 0.00 0.01 0.00 67 1013.0
20260501221803 54 214 1.0 4.0 0.00 0.01 0.00 67 1013.1
20260501220904 54 211 1.0 6.0 0.00 0.01 0.00 67 1013.3
20260501220213 54 230 2.0 4.0 0.00 0.01 0.00 66 1013.4
20260501215403 54 235 2.0 7.0 0.00 0.01 0.00 66 1013.3
20260501214503 54 257 2.0 8.0 0.00 0.01 0.00 66 1013.3
20260501213603 54 243 3.0 11.0 0.00 0.01 0.00 66 1013.1
20260501212703 54 204 2.0 8.0 0.00 0.01 0.00 66 1013.4
20260501211803 54 268 2.0 8.0 0.00 0.01 0.00 65 1013.5
20260501210904 54 284 2.0 6.0 0.00 0.01 0.00 65 1013.5
20260501210009 54 247 2.0 6.0 0.00 0.01 0.00 65 1013.4
20260501205616 54 239 2.0 6.0 0.00 0.01 0.01 65 1013.7
20260501204713 54 223 2.0 8.0 0.00 0.01 0.01 65 1013.7
20260501203815 54 249 2.0 6.0 0.00 0.01 0.01 66 1013.5